Date,TemperatureHighF,TemperatureAvgF,TemperatureLowF,DewpointHighF,DewpointAvgF,DewpointLowF,HumidityHigh,HumidityAvg,HumidityLow,PressureMaxIn,PressureMinIn,WindSpeedMaxMPH,WindSpeedAvgMPH,GustSpeedMaxMPH,PrecipitationSumIn
2013-1-1,48,45,38,47,43,23,99,93,51,30.17,29.96,4,-20,5,0.29
2013-1-2,45,40,37,45,38,35,99,93,87,30.17,29.92,13,-8,13,0.26
2013-1-3,41,35,25,39,32,21,99,89,68,30.34,30.11,11,-13,11,0.00
2013-1-4,48,33,21,27,22,15,98,66,29,30.41,30.28,14,-12,15,0.00
2013-1-5,46,36,20,33,23,18,95,63,32,30.44,30.26,12,-12,14,0.02
2013-1-6,55,42,29,40,33,20,96,72,35,30.26,30.06,15,-12,16,0.03
2013-1-7,52,38,26,30,26,23,93,66,37,30.45,30.21,12,-13,12,0.00
2013-1-8,52,40,22,44,36,21,96,85,64,30.48,30.38,9,-9,9,0.00
2013-1-9,57,52,45,54,51,43,100,94,87,30.48,30.40,9,-13,10,0.00
2013-1-10,63,55,44,54,50,44,100,85,65,30.49,30.31,16,-18,16,0.05
2013-1-11,58,54,50,58,54,49,100,99,96,30.31,30.14,15,-14,15,0.35
2013-1-12,70,62,55,63,58,54,100,90,73,30.17,30.07,13,-14,13,0.11
2013-1-13,62,59,56,58,57,54,98,93,85,30.11,30.03,18,-12,18,0.15
2013-1-14,60,58,48,60,58,47,99,98,93,30.10,30.02,24,-11,26,1.25
2013-1-15,56,52,45,56,52,45,100,99,98,30.10,29.99,14,-14,14,1.32
2013-1-16,56,53,49,54,52,48,100,99,96,30.01,29.94,8,-10,9,0.51
2013-1-17,51,45,37,51,44,35,100,98,92,29.98,29.71,27,-24,27,2.02
2013-1-18,51,37,26,28,23,15,97,61,27,30.53,30.37,13,-10,13,0.00
2013-1-19,50,39,23,32,27,20,98,64,33,30.51,30.23,11,-17,11,0.01
2013-1-20,58,45,30,34,28,21,92,54,26,30.23,30.08,17,-7,19,0.00
2013-1-21,52,40,26,31,22,14,97,52,29,30.12,30.00,26,-6,28,0.00
2013-1-22,39,29,20,14,7,0,60,39,24,30.29,30.01,19,-7,19,0.00
2013-1-23,48,34,16,27,18,4,75,53,39,30.38,30.13,17,-12,17,0.00
2013-1-24,44,35,22,32,14,5,68,43,28,30.46,30.06,19,-5,19,0.00
2013-1-25,42,26,19,39,21,4,99,83,47,30.48,30.16,13,-8,13,0.07
2013-1-26,41,33,27,38,31,26,99,92,75,30.39,30.18,11,-14,11,0.09
2013-1-27,47,35,24,35,30,24,98,82,60,30.56,30.38,11,-12,12,0.01
2013-1-28,59,47,35,51,43,29,99,88,74,30.50,30.28,14,-13,16,0.00
2013-1-29,63,55,39,58,52,38,99,89,71,30.28,30.01,27,-11,27,0.13
2013-1-30,60,58,55,59,58,55,100,98,95,30.01,29.47,40,-16,40,3.49
2013-1-31,40,34,28,23,20,17,75,57,42,30.10,29.79,30,-7,38,0.00
2013-2-1,35,29,19,25,10,-2,75,47,26,30.40,30.03,15,-6,15,0.00
2013-2-2,34,24,17,17,11,5,92,63,31,30.40,30.33,11,-22,11,0.00
2013-2-3,43,36,27,33,25,20,94,65,48,30.06,29.94,25,-8,25,0.08
2013-2-4,49,36,23,26,23,19,92,61,32,30.18,30.05,15,-12,16,0.00
2013-2-5,56,44,29,39,31,23,91,63,40,30.05,29.96,16,-12,16,0.00
2013-2-6,62,47,31,36,28,18,95,53,20,30.23,30.04,11,-12,11,0.00
2013-2-7,42,38,31,40,34,26,99,86,60,30.23,30.02,15,-6,15,0.33
2013-2-8,50,43,34,46,36,25,100,78,54,30.14,29.95,17,-8,17,0.11
2013-2-9,58,42,25,29,21,5,90,51,12,30.37,30.11,9,-8,14,0.00
2013-2-10,50,41,32,44,31,21,99,72,36,30.42,30.21,14,-12,15,0.51
2013-2-11,55,50,42,54,44,30,100,81,51,30.21,30.00,15,-8,17,0.56
2013-2-12,53,45,35,40,33,24,96,66,36,30.11,29.92,8,-13,9,0.06
2013-2-13,46,39,30,42,36,28,98,91,73,29.94,29.68,14,-8,17,0.12
2013-2-14,50,38,24,35,30,23,98,74,48,30.10,29.91,10,-8,15,0.01
2013-2-15,57,44,25,36,31,24,98,65,36,30.14,29.98,14,-7,14,0.00
2013-2-16,36,29,20,30,20,8,89,70,42,30.06,29.84,18,-11,19,0.00
2013-2-17,39,28,13,14,7,0,80,42,24,30.32,30.06,17,-7,18,0.01
2013-2-18,51,38,18,24,20,11,91,52,32,30.43,30.23,15,-7,15,0.01
2013-2-19,51,40,33,40,25,9,96,58,35,30.23,29.91,22,-6,26,0.30
2013-2-20,50,38,21,17,10,2,70,35,14,30.16,30.06,18,-16,18,0.00
2013-2-21,59,43,24,36,21,12,96,48,20,30.24,30.11,57,-12,57,0.34
2013-2-22,40,37,33,40,36,30,99,97,90,30.28,30.11,6,-9,6,0.68
2013-2-23,50,45,38,49,45,38,99,98,93,30.12,29.85,4,-9,4,0.15
2013-2-24,62,46,30,43,32,20,99,64,21,30.05,29.87,13,-12,13,0.00
2013-2-25,44,36,28,31,28,25,97,72,49,30.15,30.02,13,-7,14,0.08
2013-2-26,42,35,31,40,33,30,99,95,81,30.05,29.64,19,-12,19,0.41
2013-2-27,56,45,36,38,32,26,87,63,34,29.84,29.71,16,-10,17,0.00
2013-2-28,41,35,25,32,25,22,88,67,52,29.94,29.74,19,-6,19,0.00
2013-3-1,43,33,22,28,25,19,96,73,52,29.98,29.91,13,-11,13,0.00
2013-3-2,40,33,24,30,24,17,95,71,48,29.97,29.87,12,-7,12,0.05
2013-3-3,40,29,20,19,16,12,78,59,38,30.06,29.94,13,-10,13,0.00
2013-3-4,51,36,16,25,18,11,85,52,24,30.20,30.05,12,-11,13,0.00
2013-3-5,48,41,30,47,37,24,98,88,67,30.13,29.69,26,-11,27,0.62
2013-3-6,40,32,26,26,23,18,87,69,47,30.17,29.73,22,-10,22,0.00
2013-3-7,52,36,22,31,26,20,97,70,39,30.31,30.17,14,-10,15,0.00
2013-3-8,57,40,22,26,18,6,97,51,14,30.35,30.25,13,-11,13,0.00
2013-3-9,61,46,24,30,26,20,88,51,28,30.37,30.25,11,-7,11,0.00
2013-3-10,62,50,33,35,32,28,86,53,33,30.30,30.16,10,-7,15,0.00
2013-3-11,54,50,47,50,47,35,99,91,60,30.18,29.83,20,-10,24,0.88
2013-3-12,58,47,37,51,39,28,99,75,51,30.04,29.78,15,-11,15,1.13
2013-3-13,47,38,28,29,21,16,83,54,33,30.19,30.03,23,-10,24,0.00
2013-3-14,46,31,23,18,15,11,69,52,28,30.33,30.19,12,-22,15,0.00
2013-3-15,68,56,24,41,34,19,83,45,26,30.23,29.92,21,-8,21,0.00
2013-3-16,76,63,52,45,42,40,66,48,29,29.93,29.75,25,-13,25,0.00
2013-3-17,71,61,48,49,46,42,83,59,42,29.96,29.83,19,-10,21,0.00
2013-3-18,52,43,39,47,42,39,99,94,79,30.00,29.85,15,-12,17,0.57
2013-3-19,60,48,37,41,26,15,100,51,19,30.08,29.89,23,-6,23,0.03
2013-3-20,53,42,33,26,15,8,72,35,18,30.12,29.84,16,-11,20,0.00
2013-3-21,43,33,24,29,12,6,89,44,25,29.99,29.80,17,-10,19,0.00
2013-3-22,45,35,20,24,18,11,78,50,34,30.09,29.99,11,-7,11,0.00
2013-3-23,59,44,36,47,38,24,96,80,54,30.08,29.89,9,-12,9,0.00
2013-3-24,45,40,37,41,39,36,100,95,81,29.94,29.54,17,-11,18,0.36
2013-3-25,38,32,27,37,23,18,98,69,51,29.96,29.57,27,-9,27,0.06
2013-3-26,41,32,22,23,20,17,85,62,42,30.25,29.96,18,-10,21,0.00
2013-3-27,50,37,22,26,21,16,90,55,27,30.31,30.21,18,-6,19,0.00
2013-3-28,56,41,22,28,17,1,95,46,11,30.34,30.22,16,-11,16,0.00
2013-3-29,54,40,23,38,28,17,91,64,31,30.37,30.27,16,-11,16,0.01
2013-3-30,61,50,38,44,39,36,98,69,43,30.27,30.07,16,-11,16,0.01
2013-3-31,64,53,45,53,49,41,100,89,62,30.08,29.84,15,-7,15,0.40
2013-4-1,64,55,46,50,41,32,97,63,35,29.98,29.84,22,-6,23,0.00
2013-4-2,64,50,34,32,23,8,86,40,13,30.13,29.97,18,-10,18,0.00
2013-4-3,59,49,39,27,22,16,44,35,23,30.25,30.12,13,-10,13,0.00
2013-4-4,47,36,32,34,31,25,98,84,41,30.25,30.00,14,-10,15,0.62
2013-4-5,60,47,34,42,35,23,100,68,25,30.10,29.98,19,-10,21,0.01
2013-4-6,66,52,31,37,33,30,96,53,28,30.24,30.10,14,-11,16,0.00
2013-4-7,66,55,37,45,40,32,90,58,40,30.22,30.11,18,-10,19,0.00
2013-4-8,72,60,42,53,48,40,93,67,47,30.15,30.07,24,2,24,0.00
2013-4-9,78,66,50,56,53,48,95,65,46,30.18,30.09,15,-10,16,0.00
2013-4-10,81,69,54,58,55,51,89,62,43,30.10,29.92,15,-10,16,0.00
2013-4-11,72,65,56,63,57,52,96,76,55,29.94,29.65,26,-8,31,0.40
2013-4-12,74,63,49,62,44,29,97,56,24,29.82,29.61,25,-9,25,1.26
2013-4-13,75,59,40,39,32,23,83,42,16,30.03,29.80,16,-11,18,0.00
2013-4-14,67,54,38,50,42,35,97,67,34,30.09,29.98,17,-6,17,0.22
2013-4-15,66,57,48,57,53,48,99,88,66,30.20,29.96,13,-16,13,0.42
2013-4-16,76,65,55,60,57,54,100,76,58,30.27,30.17,13,-12,13,0.00
2013-4-17,80,62,54,61,58,53,99,88,51,30.22,30.11,17,-7,18,0.32
2013-4-18,73,64,55,60,57,54,100,80,54,30.12,29.92,17,-10,18,0.08
2013-4-19,63,57,42,62,55,37,100,92,61,29.93,29.70,41,-4,42,1.10
2013-4-20,64,49,36,39,29,22,92,50,28,30.29,29.90,12,-6,13,0.00
2013-4-21,60,48,30,36,32,27,97,57,33,30.43,30.28,16,-6,16,0.00
2013-4-22,65,50,39,39,36,32,87,61,32,30.40,30.20,13,-10,13,0.00
2013-4-23,70,53,32,46,40,31,98,64,36,30.29,30.11,16,-6,16,0.00
2013-4-24,68,57,46,57,51,43,96,81,62,30.15,30.02,21,-6,21,0.00
2013-4-25,72,56,40,54,34,18,97,50,15,30.30,30.06,16,-9,16,0.00
2013-4-26,68,54,33,41,34,27,94,50,28,30.40,30.29,18,-6,18,0.00
2013-4-27,54,50,48,50,47,39,99,90,60,30.37,30.26,6,-8,8,0.87
2013-4-28,50,48,46,50,48,46,99,99,99,30.27,30.06,7,-9,8,2.34
2013-4-29,71,60,49,57,54,48,100,81,58,30.09,29.93,16,-7,16,0.04
2013-4-30,72,59,47,57,54,47,99,83,56,30.16,29.96,16,-7,16,0.00
2013-5-1,64,58,53,56,52,50,97,81,64,30.25,30.15,15,-5,16,0.00
2013-5-2,58,54,51,55,52,49,98,94,86,30.27,30.21,9,-7,9,0.04
2013-5-3,56,52,50,52,50,49,99,93,80,30.22,30.09,26,-6,26,0.20
2013-5-4,52,47,44,50,46,42,99,95,90,30.09,29.96,15,-6,15,0.83
2013-5-5,48,46,44,48,46,44,99,98,96,30.00,29.85,17,-6,17,3.38
2013-5-6,62,51,40,51,46,39,100,82,53,29.92,29.80,20,-6,20,3.39
2013-5-7,66,52,35,50,43,32,100,76,32,29.98,29.89,10,-11,12,0.00
2013-5-8,71,58,43,54,50,43,100,78,53,30.05,29.93,14,-7,14,0.00
2013-5-9,80,63,46,57,52,45,100,73,35,30.10,30.01,12,-7,13,0.00
2013-5-10,76,63,50,62,56,50,99,79,56,30.09,29.94,19,-6,19,0.01
2013-5-11,75,63,53,62,57,52,98,82,63,29.96,29.80,14,-6,16,0.13
2013-5-12,70,58,44,54,39,26,98,55,21,30.05,29.85,15,-10,15,0.00
2013-5-13,69,53,38,34,29,21,83,43,18,30.20,30.05,13,-7,13,0.00
2013-5-14,70,56,32,51,41,31,97,62,36,30.26,30.11,17,-10,18,0.00
2013-5-15,87,72,56,58,52,46,83,53,26,30.12,29.93,16,-10,16,0.00
2013-5-16,79,67,52,62,55,48,93,67,37,30.02,29.94,9,-11,9,0.00
2013-5-17,79,65,53,62,57,52,99,77,41,30.08,30.00,12,-11,12,0.00
2013-5-18,65,62,60,63,61,60,99,96,87,30.07,30.03,7,-16,7,0.05
2013-5-19,73,65,61,67,63,59,100,91,74,30.10,29.98,10,-8,10,0.03
2013-5-20,81,65,58,70,62,58,100,92,58,30.09,30.02,9,-11,9,0.33
2013-5-21,83,66,57,70,62,57,100,90,56,30.04,29.95,15,-16,16,0.82
2013-5-22,81,68,59,68,63,58,100,87,62,30.01,29.86,18,-11,18,0.41
2013-5-23,80,68,59,66,57,49,100,73,38,29.92,29.83,14,-10,16,0.51
2013-5-24,70,60,48,53,41,29,96,54,25,30.21,29.88,16,-10,16,0.00
2013-5-25,74,59,37,50,42,32,98,58,27,30.30,30.18,13,-15,13,0.00
2013-5-26,75,59,44,54,48,42,96,71,33,30.29,30.17,8,-11,8,0.00
2013-5-27,79,64,46,58,54,46,99,72,43,30.27,30.14,13,-11,14,0.00
2013-5-28,80,67,55,61,58,54,98,76,50,30.20,30.14,14,-16,16,0.00
2013-5-29,82,72,57,64,61,56,98,71,51,30.19,30.11,11,-9,11,0.00
2013-5-30,80,67,55,64,60,54,99,80,54,30.25,30.15,14,-15,14,0.00
2013-5-31,79,68,58,65,61,57,99,79,52,30.21,30.09,13,-10,13,0.03
2013-6-1,78,70,62,65,63,60,98,80,58,30.11,30.00,14,-10,14,0.02
2013-6-2,76,66,62,70,65,61,99,95,77,30.04,29.88,14,-8,14,0.68
2013-6-3,82,70,61,69,64,58,100,82,48,29.94,29.83,11,-11,12,0.06
2013-6-4,81,69,58,67,62,57,99,81,54,30.05,29.92,9,-11,10,0.00
2013-6-5,78,68,62,68,64,61,98,86,65,30.05,29.91,16,-10,17,0.25
2013-6-6,74,67,61,68,64,60,100,92,80,29.94,29.77,10,-11,10,0.30
2013-6-7,84,69,62,70,64,61,100,88,51,29.81,29.66,8,-8,9,0.36
2013-6-8,81,70,60,68,64,59,100,83,55,30.07,29.81,11,-7,11,0.10
2013-6-9,78,68,62,70,65,61,100,92,72,30.12,30.00,18,-14,20,0.81
2013-6-10,77,68,63,68,65,62,99,92,65,30.01,29.90,23,-11,25,1.78
2013-6-11,89,73,61,66,63,58,100,75,40,29.99,29.92,13,-7,13,0.06
2013-6-12,93,74,58,76,68,58,100,84,51,30.02,29.91,7,-7,7,0.00
2013-6-13,90,72,63,68,65,60,99,81,41,29.93,29.70,14,-10,14,0.75
2013-6-14,79,70,54,63,55,49,99,64,39,30.03,29.78,13,-8,13,0.00
2013-6-15,80,67,49,63,57,49,99,75,50,30.14,30.02,11,-11,12,0.00
2013-6-16,82,70,55,67,62,54,100,79,56,30.14,30.01,13,-14,13,0.00
2013-6-17,81,70,64,71,66,64,99,89,65,30.04,29.92,13,-11,14,1.64
2013-6-18,79,69,62,71,66,61,100,91,73,29.94,29.78,12,-11,12,0.45
2013-6-19,79,69,59,67,62,58,98,82,57,30.11,29.90,9,-7,9,0.00
2013-6-20,80,67,58,66,62,57,100,86,56,30.22,30.09,12,-7,12,0.00
2013-6-21,82,69,57,65,61,56,100,79,47,30.26,30.16,8,-7,8,0.00
2013-6-22,85,69,55,63,58,46,99,74,27,30.23,30.11,8,-15,9,0.00
2013-6-23,80,67,55,72,65,55,100,92,69,30.21,30.11,5,-8,5,0.45
2013-6-24,83,72,62,71,67,62,100,86,65,30.20,30.08,9,-7,10,0.96
2013-6-25,87,71,61,71,66,60,100,86,52,30.13,30.00,7,-11,8,0.02
2013-6-26,87,72,62,73,67,61,100,87,53,30.03,29.90,15,-11,15,0.48
2013-6-27,87,74,64,73,68,64,100,84,58,29.95,29.73,13,-7,13,0.04
2013-6-28,88,75,61,73,67,61,100,78,48,29.80,29.59,14,-11,15,0.01
2013-6-29,86,71,60,70,63,56,100,78,43,29.69,29.60,9,-7,12,0.00
2013-6-30,84,70,57,68,62,56,99,78,45,29.79,29.68,13,-15,14,0.01
2013-7-1,80,69,62,68,65,62,99,88,62,29.94,29.76,14,-14,14,1.44
2013-7-2,80,71,62,71,66,62,99,87,64,30.10,29.93,14,-7,14,0.03
2013-7-3,76,66,60,71,65,60,100,96,83,30.20,30.06,12,-20,13,3.75
2013-7-4,71,65,60,70,65,59,100,99,94,30.21,30.13,18,-8,18,2.22
2013-7-5,81,70,64,70,66,64,100,89,60,30.23,30.15,17,-12,18,2.22
2013-7-6,79,69,64,73,68,63,99,94,75,30.19,30.09,16,-7,16,0.89
2013-7-7,80,71,66,71,68,66,100,92,72,30.14,30.06,13,-7,13,0.34
2013-7-8,84,71,64,72,68,63,100,90,63,30.17,30.11,6,-34,6,0.00
2013-7-9,86,75,66,76,71,66,100,88,62,30.13,30.02,7,-14,7,0.05
2013-7-10,84,73,66,76,70,66,100,92,67,30.10,29.92,10,-7,11,0.13
2013-7-11,81,72,65,73,69,65,100,92,76,29.95,29.84,5,-12,6,0.17
2013-7-12,82,69,61,72,66,61,100,92,62,29.98,29.85,12,-15,12,0.62
2013-7-13,75,67,60,68,65,60,100,92,77,30.09,29.97,7,-7,8,0.34
2013-7-14,73,68,65,69,67,64,100,95,85,30.27,30.08,16,-6,16,0.69
2013-7-15,81,72,64,70,67,64,100,86,64,30.31,30.23,10,-8,11,0.03
2013-7-16,89,75,65,74,69,64,100,84,50,30.31,30.20,8,-15,8,0.03
2013-7-17,88,73,65,75,68,64,100,87,52,30.26,30.12,13,-11,14,0.16
2013-7-18,86,75,65,74,69,64,100,84,59,30.19,30.05,9,-12,9,0.17
2013-7-19,89,75,63,74,69,63,100,83,56,30.11,29.96,14,-7,14,0.00
2013-7-20,85,72,67,73,69,65,100,91,64,30.02,29.90,10,-7,14,0.57
2013-7-21,86,71,64,73,68,64,100,91,59,29.99,29.91,4,-7,12,0.08
2013-7-22,83,73,63,75,69,63,100,89,64,29.99,29.82,12,-12,13,0.32
2013-7-23,87,73,61,73,67,61,100,83,50,29.88,29.76,8,-11,10,0.21
2013-7-24,86,70,61,73,66,61,100,91,55,29.85,29.75,7,-11,8,0.31
2013-7-25,84,68,60,71,64,60,100,90,60,30.02,29.85,12,-11,14,0.99
2013-7-26,80,69,60,70,65,59,100,88,69,30.09,30.00,10,-14,11,0.00
2013-7-30,82,72,66,71,67,64,97,85,68,30.16,30.10,9,0,9,0.00
2013-7-31,77,69,64,70,67,64,100,93,75,30.16,29.94,7,-8,8,0.02
2013-8-1,84,71,64,73,67,64,100,90,62,29.98,29.86,9,-11,13,1.08
2013-8-2,84,71,62,71,67,62,100,87,62,30.03,29.92,10,-15,10,0.01
2013-8-3,85,72,62,71,67,61,100,85,51,30.02,29.94,7,-11,7,0.00
2013-8-4,86,72,62,70,65,61,100,80,53,30.03,29.93,9,-7,11,0.00
2013-8-5,83,70,59,69,65,59,99,85,63,30.05,29.95,12,-15,12,0.00
2013-8-6,81,72,67,73,69,66,99,91,63,30.02,29.94,8,-7,9,0.59
2013-8-7,73,68,67,71,68,66,100,98,91,30.04,29.98,12,-12,12,3.30
2013-8-8,78,71,66,72,69,66,100,93,81,30.05,30.00,11,-8,11,0.00
2013-8-9,83,72,66,74,70,66,100,93,71,30.08,30.00,8,-12,8,0.15
2013-8-10,85,72,66,76,70,66,100,93,70,30.11,30.03,11,-11,13,1.84
2013-8-11,84,72,62,74,69,62,100,89,63,30.13,30.04,9,-8,11,0.01
2013-8-12,86,73,62,76,69,62,100,89,63,30.09,29.95,9,-12,9,0.13
2013-8-13,85,73,64,72,68,64,100,86,58,29.97,29.81,11,-8,12,0.07
2013-8-14,79,68,61,68,62,56,100,84,62,30.05,29.86,7,-8,7,0.00
2013-8-15,66,62,57,61,58,55,96,87,75,30.13,30.03,10,-8,10,0.00
2013-8-16,70,62,55,60,57,54,98,85,66,30.16,30.08,7,-16,8,0.00
2013-8-17,66,61,57,60,58,54,99,92,75,30.17,30.11,9,-11,10,0.09
2013-8-18,77,66,59,69,64,58,100,94,75,30.22,30.12,7,-12,7,0.15
2013-8-19,73,66,61,69,65,61,100,96,84,30.19,30.07,6,-8,6,0.64
2013-8-20,80,69,62,71,66,62,100,92,71,30.19,30.10,6,-12,6,0.00
2013-8-21,78,68,63,70,66,63,100,96,74,30.23,30.12,3,-8,4,0.19
2013-8-22,86,71,61,73,67,61,100,89,58,30.17,30.02,6,-4,6,0.18
2013-8-23,84,70,61,72,66,61,100,87,57,30.07,29.96,10,-8,11,0.98
2013-8-24,79,67,56,65,62,56,100,83,54,30.29,30.06,9,-8,9,0.01
2013-8-25,76,64,51,64,59,51,100,84,56,30.39,30.27,7,-12,7,0.00
2013-8-26,81,67,55,68,61,55,100,83,50,30.33,30.13,9,-12,9,0.00
2013-8-27,84,70,55,70,64,55,100,84,53,30.17,30.02,7,-12,9,0.00
2013-8-28,88,72,59,73,67,59,100,85,55,30.05,29.94,8,-8,8,0.00
2013-8-29,88,75,62,75,68,62,100,82,56,29.97,29.88,9,-12,9,0.00
2013-8-30,80,71,67,72,69,66,100,94,77,30.01,29.92,8,-13,9,0.29
2013-8-31,85,73,65,74,69,65,100,89,65,29.95,29.86,8,-12,8,0.01
2013-9-1,85,73,63,76,69,63,100,89,64,29.90,29.79,10,-12,11,0.00
2013-9-2,87,72,64,73,67,64,100,85,54,29.90,29.80,10,-12,13,0.11
2013-9-3,85,72,61,72,66,61,100,85,58,29.98,29.84,7,-8,7,0.11
2013-9-4,81,70,60,70,66,60,100,87,65,30.10,29.97,10,-8,10,0.00
2013-9-5,86,70,59,69,63,58,100,81,41,30.12,30.05,5,-12,5,0.00
2013-9-6,81,66,53,67,61,53,100,85,58,30.18,30.06,7,-8,8,0.00
2013-9-7,80,67,55,69,63,55,100,87,63,30.12,30.00,9,-12,10,0.00
2013-9-8,85,70,57,70,65,57,100,86,57,30.01,29.93,5,-12,5,0.01
2013-9-9,84,71,60,71,66,60,100,86,58,30.14,30.01,12,-8,12,0.00
2013-9-10,84,72,60,71,66,60,100,84,61,30.22,30.13,8,-8,8,0.00
2013-9-11,85,70,59,72,66,59,100,89,61,30.22,30.09,7,-12,7,0.00
2013-9-12,85,70,61,71,66,61,100,88,55,30.09,29.86,7,-8,7,0.01
2013-9-13,81,68,57,65,59,51,100,77,50,29.88,29.78,8,-8,9,0.01
2013-9-14,76,60,48,60,54,47,100,81,49,30.12,29.88,7,-8,7,0.00
2013-9-15,74,62,50,64,58,49,100,88,65,30.22,30.13,11,-12,11,0.00
2013-9-16,82,67,54,66,60,54,100,81,51,30.17,30.06,5,-12,5,0.01
2013-9-17,68,62,58,62,56,53,94,82,62,30.26,30.14,10,-12,10,0.00
2013-9-18,69,61,54,60,57,53,98,88,70,30.28,30.16,7,-12,7,0.00
2013-9-19,78,66,55,68,62,55,100,90,63,30.19,30.08,9,-13,9,0.08
2013-9-20,80,68,57,69,64,57,100,86,62,30.09,29.91,7,-8,10,0.00
2013-9-21,65,62,56,64,61,56,100,99,96,29.93,29.67,13,-8,13,1.84
2013-9-22,78,64,51,62,57,51,100,79,49,29.90,29.74,5,-14,5,0.01
2013-9-23,72,62,54,61,57,53,99,85,61,30.04,29.90,9,-12,10,0.00
2013-9-24,71,62,52,62,59,52,100,90,71,30.06,29.92,7,-12,7,0.00
2013-9-25,62,59,56,60,58,56,100,98,93,29.93,29.85,5,-18,6,0.14
2013-9-26,71,61,53,62,58,52,100,91,70,30.04,29.89,7,-9,7,0.00
2013-9-27,74,62,50,62,56,50,100,84,56,30.17,30.04,7,-12,7,0.01
2013-9-28,70,60,51,59,55,51,100,84,61,30.23,30.13,7,-8,7,0.00
2013-9-29,71,59,47,59,54,47,99,86,56,30.17,30.02,9,-8,9,0.00
2013-9-30,71,60,51,60,56,51,100,90,65,30.11,30.01,7,-12,8,0.00
2013-10-1,76,64,49,62,58,49,100,82,55,30.17,30.05,6,-17,8,0.00
2013-10-2,78,63,51,65,58,51,100,86,54,30.17,30.08,10,-16,10,0.00
2013-10-3,79,65,53,66,60,53,100,84,59,30.14,30.06,9,-12,9,0.00
2013-10-4,81,65,52,66,61,52,100,87,56,30.16,30.08,7,-8,8,0.00
2013-10-5,82,67,53,68,62,53,100,86,58,30.15,30.03,7,-8,7,0.00
2013-10-6,76,66,54,66,61,54,100,87,65,30.06,29.87,13,-12,13,0.18
2013-10-7,70,60,48,65,58,47,100,90,77,30.00,29.79,13,-8,13,1.43
2013-10-8,67,56,45,52,49,44,100,80,56,30.21,30.00,12,-12,12,0.00
2013-10-9,72,57,44,56,49,42,99,77,51,30.23,30.11,6,-17,6,0.00
2013-10-10,73,59,41,56,51,41,100,79,49,30.15,30.01,8,-17,9,0.01
2013-10-11,76,61,45,58,52,45,100,77,40,30.04,29.94,10,-12,11,0.00
2013-10-12,75,61,47,63,56,47,100,86,56,30.11,29.99,6,-8,6,0.00
2013-10-13,71,63,56,64,59,56,100,90,71,30.20,30.09,7,-13,7,0.10
2013-10-14,68,61,57,61,58,56,100,91,75,30.21,30.12,8,-13,10,0.11
2013-10-15,66,59,53,60,56,53,100,90,74,30.17,30.04,6,-9,6,0.00
2013-10-16,66,58,48,60,55,48,100,90,74,30.08,29.96,7,-13,7,0.01
2013-10-17,62,59,54,62,59,54,100,99,97,29.98,29.86,9,-13,9,0.03
2013-10-18,68,57,49,57,53,48,100,87,63,30.02,29.91,9,-13,9,0.00
2013-10-19,62,53,44,56,50,44,100,89,67,29.97,29.86,7,-13,7,0.00
2013-10-20,64,50,38,48,42,36,100,80,39,30.12,29.96,8,-8,8,0.01
2013-10-21,64,51,36,53,47,35,100,89,65,30.17,30.04,18,-12,18,0.00
2013-10-22,69,56,48,56,51,46,100,84,50,30.05,29.81,10,-13,10,0.00
2013-10-23,55,47,32,47,35,29,97,67,42,30.05,29.77,20,-7,20,0.00
2013-10-24,55,43,28,39,34,26,98,71,48,30.20,30.05,11,-13,11,0.00
2013-10-25,49,39,27,34,26,20,96,64,34,30.40,30.20,13,-12,13,0.00
2013-10-26,53,40,23,39,32,22,100,74,51,30.40,30.14,14,-8,14,0.00
2013-10-27,65,53,37,51,46,36,98,78,56,30.16,30.08,11,-21,12,0.00
2013-10-28,66,55,46,54,51,46,99,87,60,30.27,30.11,11,-9,11,0.01
2013-10-29,68,56,46,53,50,46,100,83,52,30.35,30.24,11,-13,11,0.00
2013-10-30,74,62,48,59,54,48,99,79,53,30.30,30.16,14,-12,15,0.00
2013-10-31,63,59,52,60,56,51,99,89,75,30.17,29.87,18,-17,20,0.22
2013-11-1,70,61,47,60,57,47,99,87,65,29.87,29.64,23,-8,23,0.33
2013-11-2,61,50,39,47,39,33,100,69,43,30.03,29.74,18,-8,20,0.00
2013-11-3,59,46,34,38,35,31,98,69,35,30.38,30.01,7,-8,8,0.00
2013-11-4,56,42,30,36,33,29,99,72,41,30.53,30.38,9,-8,10,0.00
2013-11-5,59,45,30,40,34,29,98,69,33,30.56,30.44,7,-8,8,0.00
2013-11-6,64,53,41,53,49,40,99,87,65,30.46,30.15,8,-13,8,0.05
2013-11-7,64,52,40,58,42,26,99,71,44,30.15,29.98,15,-12,15,0.00
2013-11-8,55,43,28,30,20,6,91,46,14,30.35,30.14,14,-8,14,0.00
2013-11-9,54,44,26,36,30,24,98,61,39,30.39,30.27,13,-8,13,0.00
2013-11-10,68,55,37,35,31,24,84,43,25,30.30,30.17,9,-9,9,0.00
2013-11-11,59,46,28,34,31,27,96,59,32,30.32,30.18,11,-8,11,0.00
2013-11-12,56,39,22,37,26,12,90,60,35,30.47,30.12,25,-5,25,0.00
2013-11-13,49,33,17,19,12,3,83,46,19,30.57,30.45,13,-12,13,0.00
2013-11-14,56,39,20,25,20,15,89,53,23,30.54,30.37,10,-12,11,0.00
2013-11-15,51,44,26,48,41,21,99,90,58,30.39,30.23,6,-14,6,0.15
2013-11-16,63,54,48,54,52,47,100,94,73,30.28,30.19,14,-14,14,0.12
2013-11-17,58,55,51,58,55,50,100,99,95,30.22,29.90,10,-19,10,0.56
2013-11-18,67,56,44,58,38,29,100,54,31,29.99,29.89,18,-18,18,0.09
2013-11-19,53,43,29,30,24,12,88,50,21,30.26,29.98,16,-12,18,0.00
2013-11-20,49,41,32,30,27,24,77,60,42,30.46,30.25,11,-12,12,0.00
2013-11-21,47,43,38,47,42,29,99,93,71,30.51,30.40,9,-9,9,0.36
2013-11-22,65,55,47,59,54,47,100,96,80,30.43,30.13,10,-14,10,0.20
2013-11-23,54,46,32,54,35,14,100,70,35,30.19,30.07,15,-11,18,0.01
2013-11-24,38,30,21,22,7,1,67,40,23,30.55,30.18,20,-11,20,0.00
2013-11-25,40,31,17,24,12,0,83,46,19,30.56,30.36,7,-8,11,0.00
2013-11-26,40,38,29,40,37,25,100,98,80,30.36,29.77,16,-21,16,2.82
2013-11-27,37,29,19,28,20,14,96,71,55,30.25,29.70,20,-8,20,0.01
2013-11-28,48,31,16,26,21,14,96,71,37,30.53,30.24,9,-8,9,0.00
2013-11-29,54,37,21,29,25,20,97,67,29,30.62,30.50,8,-8,8,0.00
2013-11-30,49,34,25,28,24,22,93,69,42,30.63,30.40,10,-9,10,0.00
2013-12-1,56,41,30,40,33,25,98,75,52,30.41,30.06,10,-8,11,0.00
2013-12-2,55,44,29,42,39,28,98,84,62,30.06,29.84,9,-14,9,0.00
2013-12-3,51,48,42,48,47,41,100,96,87,29.97,29.88,9,-9,9,0.01
2013-12-4,62,55,47,56,54,46,100,96,81,30.08,29.95,14,-9,15,0.01
2013-12-5,63,60,56,63,60,56,100,99,96,30.09,29.97,22,-9,22,0.54
2013-12-6,64,62,57,63,62,57,99,97,93,30.03,29.92,28,-10,29,1.03
2013-12-7,57,47,40,57,44,40,99,90,78,30.35,29.97,14,-7,14,1.03
2013-12-8,42,37,35,41,37,35,100,99,96,30.36,30.24,7,-10,30,0.29
2013-12-9,57,49,35,55,49,35,100,99,92,30.26,30.02,10,-21,10,0.50
2013-12-10,54,41,24,50,33,21,100,73,40,30.33,29.91,23,-12,23,0.01
2013-12-11,50,36,20,30,23,16,97,64,31,30.45,30.32,14,-13,14,0.01
2013-12-12,42,32,21,22,17,11,86,57,34,30.44,30.34,11,-8,11,0.00
2013-12-13,48,35,19,28,22,16,94,62,30,30.43,30.30,13,-17,13,0.00
2013-12-14,44,38,32,43,37,25,100,96,69,30.32,29.82,12,-19,12,1.32
2013-12-15,49,37,25,44,31,25,100,81,53,30.15,29.81,13,-13,13,0.00
2013-12-16,53,40,23,34,27,22,100,64,34,30.24,30.14,20,-8,20,0.01
2013-12-17,59,48,36,33,29,18,72,48,30,30.20,29.99,27,-10,27,0.00
2013-12-18,50,37,25,24,18,13,85,50,24,30.35,30.06,12,-13,12,0.00
2013-12-19,62,46,26,30,25,20,87,49,24,30.38,30.25,11,-12,21,0.00
2013-12-20,59,50,35,49,38,25,90,66,38,30.26,30.16,13,-8,14,0.00
2013-12-21,63,57,52,62,56,49,100,97,89,30.17,29.98,27,-18,27,0.73
2013-12-22,56,55,54,55,55,54,100,100,99,30.06,29.98,4,-21,4,1.86
2013-12-23,54,45,34,52,43,32,100,91,85,30.20,30.02,15,-13,15,0.01
2013-12-24,37,30,20,32,22,16,96,74,55,30.46,30.19,14,-7,16,0.00
2013-12-25,38,27,16,22,16,12,96,68,40,30.54,30.43,10,-12,10,0.00
2013-12-26,51,34,18,27,22,16,94,67,26,30.44,30.31,12,-8,12,0.00
2013-12-27,51,36,21,30,25,20,100,68,36,30.50,30.39,7,-13,7,0.00
2013-12-28,43,36,22,37,31,21,98,83,56,30.47,30.14,12,-8,12,0.41
2013-12-29,56,45,34,49,41,34,100,87,63,30.14,29.85,17,-15,20,0.42
2013-12-30,48,39,30,39,35,29,100,88,61,30.18,29.99,16,-12,16,0.00
2013-12-31,44,34,26,32,27,23,99,79,48,30.42,30.16,10,-13,10,0.00
2014-1-1,44,35,24,30,27,23,95,76,49,30.43,30.19,12,-22,12,0.00
2014-1-2,45,37,21,44,34,10,99,89,63,30.20,29.71,16,-17,16,0.14